Regional Weather Roundup
Issued by NWS Kansas City/Pleasant Hill, MO

Home | Current Version | Previous Version | Text Only | Print | Product List | Glossary On
Versions: 1 2 3 4 5 6 7 8 9 10 11 12 13 14 15 16 17 18 19 20 21 22 23 24 25 26 27 28 29 30 31 32 33 34 35 36 37 38 39 40 41 42 43 44 45 46 47 48 49 50
557
ASUS43 KEAX 160810
RWREAX

WEATHER ROUNDUP FOR EASTERN KANSAS AND NORTHWEST MISSOURI
NATIONAL WEATHER SERVICE KANSAS CITY/PLEASANT HILL MO
300 AM CDT MON SEP 16 2019

KSZ040-057-103>105-MOZ028-029-037-043-160900-
...KANSAS CITY METROPOLITAN AREA...

CITY           SKY/WX    TMP DP  RH WIND       PRES   REMARKS
K.C. INTL      CLEAR     74  69  85 SW9       30.05S
K.C. DOWNTOWN  CLEAR     77  68  73 SW5       30.04S
LEES SUMMIT    CLEAR     76  68  76 SW8       30.06S
OLATHE - IXD   CLEAR     71  68  90 S6        30.07S
OLATHE - OJC   CLEAR     72  69  90 S5        30.07S
LAWRENCE       CLEAR     69  67  93 CALM      30.05S

$$

MOZ001>008-011>017-020>025-030>033-038>040-044>046-053-054-160900-
...NORTHERN AND CENTRAL MISSOURI...

CITY           SKY/WX    TMP DP  RH WIND       PRES   REMARKS
ST. JOSEPH     CLEAR     72  68  87 S3        30.03S
WARRENSBURG    CLEAR     72  68  88 S3        30.06S
WHITEMAN AFB   CLEAR     71  71 100 S7        30.03S
CLINTON        CLEAR     72  70  94 S5        30.08S
SEDALIA        CLEAR     73  70  90 SW8       30.08R
WARSAW         NOT AVBL
CHILLICOTHE      N/A     71  70  96 CALM      30.05S
KIRKSVILLE     CLEAR     68  68 100 CALM      30.07R

$$

MOZ041-047>049-056>058-063>065-088>090-097-160900-
...EASTERN AND SOUTHERN MISSOURI...

CITY           SKY/WX    TMP DP  RH WIND       PRES   REMARKS
ST. LOUIS INTL PTCLDY    78  67  68 SW8       30.07S
SPIRIT OF STL  CLEAR     71  70  96 CALM      30.06S
COLUMBIA       CLEAR     72  68  87 S5        30.08S
JEFFERSON CITY CLEAR     72  69  90 SE5       30.07S
ROLLA          CLEAR     71  64  78 S9        30.11R
OSAGE BEACH    CLEAR     69  68  96 CALM      30.09S
SPRINGFIELD    CLEAR     71  66  84 SE5       30.11S
JOPLIN         CLEAR     72  68  87 SE5       30.10S
WEST PLAINS    CLEAR     75  67  76 SW3       30.13S

$$

IAZ060-094-KSZ022-034>040-054-083-096-NEZ052-066-093-160900-
...KANSAS...SOUTHEAST NEBRASKA AND IOWA...

CITY           SKY/WX    TMP DP  RH WIND       PRES   REMARKS
TOPEKA         CLEAR     75  68  78 S3        30.04S
MANHATTAN      CLEAR     72  67  84 SW3       30.03S
EMPORIA        CLEAR     70  68  93 S8        30.06S
WICHITA        PTCLDY    71  66  84 S5        30.06S
OMAHA          PTCLDY    73  68  84 CALM      30.00R
LINCOLN        CLEAR     70  64  81 S6        30.00S
FALLS CITY     CLEAR     74  68  81 S5        30.02R
LAMONI         CLEAR     74  70  87 SE5       30.05S
DES MOINES     CLEAR     72  69  90 SE5       30.03S

$$





USA.gov is the U.S. government's official web portal to all federal, state and local government web resources and services.